EZY63R LFPG-EGKK

Flight info

Callsign EZY63R
Flight time 0h 41m
Altitude 24000
Route OPALE DCT KESAX DCT KUNAV
Aircraft A320/M-SDE3FGHIRWY/LB1

Departure

Time 2026-05-08 12:21
Airport Charles de Gaulle International Airport (LFPG)

Arrival

Time 2026-05-08 13:02
Airport London Gatwick Airport (EGKK)
Time Latitude Longitude Altitude Speed Heading
2026-05-08 11:50 49.01645 2.53906 354 ft 0 kts 192°
2026-05-08 12:08 49.01655 2.53909 354 ft 2 kts 190°
2026-05-08 12:09 49.01671 2.53914 364 ft 2 kts 192°
2026-05-08 12:09 49.01687 2.53919 359 ft 2 kts 193°
2026-05-08 12:09 49.01703 2.53925 361 ft 2 kts 193°
2026-05-08 12:09 49.01719 2.53931 363 ft 2 kts 194°
2026-05-08 12:10 49.01735 2.53937 361 ft 2 kts 195°
2026-05-08 12:10 49.01751 2.53944 359 ft 2 kts 197°
2026-05-08 12:10 49.01767 2.53952 364 ft 2 kts 200°
2026-05-08 12:10 49.01782 2.53961 361 ft 2 kts 206°
2026-05-08 12:11 49.01796 2.53973 362 ft 2 kts 227°
2026-05-08 12:11 49.01804 2.53992 364 ft 1 kts 265°
2026-05-08 12:11 49.01804 2.53997 364 ft 0 kts 265°
2026-05-08 12:13 49.01804 2.53989 364 ft 3 kts 263°
2026-05-08 12:13 49.01799 2.53932 356 ft 6 kts 264°
2026-05-08 12:13 49.01796 2.53876 354 ft 6 kts 265°
2026-05-08 12:14 49.01791 2.53772 360 ft 11 kts 266°
2026-05-08 12:14 49.01785 2.53665 359 ft 10 kts 265°
2026-05-08 12:14 49.01780 2.53570 354 ft 8 kts 265°
2026-05-08 12:14 49.01775 2.53488 361 ft 8 kts 264°
2026-05-08 12:15 49.01770 2.53408 354 ft 8 kts 265°
2026-05-08 12:15 49.01764 2.53306 354 ft 10 kts 263°
2026-05-08 12:15 49.01758 2.53213 362 ft 8 kts 265°
2026-05-08 12:15 49.01754 2.53131 357 ft 7 kts 267°
2026-05-08 12:16 49.01751 2.53060 354 ft 6 kts 266°
2026-05-08 12:16 49.01747 2.52965 354 ft 14 kts 265°
2026-05-08 12:16 49.01740 2.52829 360 ft 13 kts 265°
2026-05-08 12:16 49.01733 2.52697 354 ft 12 kts 265°
2026-05-08 12:17 49.01726 2.52580 357 ft 10 kts 265°
2026-05-08 12:17 49.01721 2.52476 354 ft 9 kts 265°
2026-05-08 12:17 49.01715 2.52371 362 ft 12 kts 264°
2026-05-08 12:17 49.01708 2.52257 354 ft 10 kts 265°
2026-05-08 12:18 49.01721 2.52161 362 ft 10 kts 310°
2026-05-08 12:18 49.01801 2.52134 355 ft 11 kts 356°
2026-05-08 12:18 49.01868 2.52126 355 ft 7 kts 354°
2026-05-08 12:18 49.01907 2.52120 355 ft 5 kts 356°
2026-05-08 12:19 49.01936 2.52118 362 ft 4 kts 357°
2026-05-08 12:19 49.01989 2.52112 355 ft 14 kts 355°
2026-05-08 12:19 49.02072 2.52112 354 ft 11 kts 16°
2026-05-08 12:19 49.02112 2.52199 353 ft 0 kts 85°
2026-05-08 12:20 49.02112 2.52206 353 ft 5 kts 85°
2026-05-08 12:20 49.02134 2.52612 361 ft 75 kts 85°
2026-05-08 12:20 49.02193 2.53727 357 ft 133 kts 85°
2026-05-08 12:20 49.02269 2.55370 416 ft 173 kts 86°
2026-05-08 12:21 49.02376 2.57188 1107 ft 173 kts 84°
2026-05-08 12:21 49.02476 2.59030 1830 ft 179 kts 85°
2026-05-08 12:21 49.02583 2.61045 2254 ft 204 kts 85°
2026-05-08 12:21 49.02704 2.63324 2750 ft 229 kts 86°
2026-05-08 12:22 49.02841 2.65870 3338 ft 251 kts 85°
2026-05-08 12:22 49.02984 2.68560 4213 ft 258 kts 85°
2026-05-08 12:22 49.03130 2.71310 5141 ft 263 kts 85°
2026-05-08 12:22 49.03610 2.73995 6004 ft 269 kts 58°
2026-05-08 12:23 49.04995 2.75889 6837 ft 274 kts 23°
2026-05-08 12:23 49.06873 2.76294 7636 ft 279 kts 349°
2026-05-08 12:23 49.08710 2.75329 8486 ft 282 kts 332°
2026-05-08 12:23 49.10419 2.73826 9362 ft 285 kts 326°
2026-05-08 12:24 49.12106 2.72170 9912 ft 290 kts 326°
2026-05-08 12:24 49.13817 2.70531 10046 ft 290 kts 327°
2026-05-08 12:24 49.15555 2.68969 10069 ft 290 kts 329°
2026-05-08 12:24 49.17348 2.67451 10088 ft 304 kts 330°
2026-05-08 12:25 49.19198 2.65958 10081 ft 306 kts 331°
2026-05-08 12:25 49.21073 2.64489 10074 ft 300 kts 332°
2026-05-08 12:25 49.22975 2.62875 10075 ft 322 kts 325°
2026-05-08 12:25 49.24778 2.60937 10075 ft 315 kts 324°
2026-05-08 12:26 49.26569 2.58993 10071 ft 318 kts 324°
2026-05-08 12:26 49.28387 2.57009 10078 ft 320 kts 323°
2026-05-08 12:26 49.30209 2.55013 10077 ft 318 kts 323°
2026-05-08 12:26 49.32024 2.53023 10066 ft 315 kts 323°
2026-05-08 12:27 49.33758 2.51119 10072 ft 299 kts 324°
2026-05-08 12:27 49.35415 2.49303 10080 ft 289 kts 324°
2026-05-08 12:27 49.37045 2.47511 10075 ft 287 kts 324°
2026-05-08 12:27 49.38666 2.45725 10071 ft 287 kts 324°
2026-05-08 12:28 49.40287 2.43937 10076 ft 286 kts 324°
2026-05-08 12:28 49.41904 2.42153 10079 ft 286 kts 324°
2026-05-08 12:28 49.43525 2.40364 10184 ft 290 kts 324°
2026-05-08 12:28 49.45168 2.38552 10991 ft 291 kts 323°
2026-05-08 12:29 49.46825 2.36721 11789 ft 295 kts 323°
2026-05-08 12:29 49.48508 2.34861 12567 ft 300 kts 323°
2026-05-08 12:29 49.49634 2.33615 13072 ft 303 kts 323°
2026-05-08 12:29 49.51359 2.31704 13823 ft 308 kts 323°
2026-05-08 12:30 49.53681 2.29130 14724 ft 313 kts 323°
2026-05-08 12:30 49.55452 2.27164 15433 ft 315 kts 322°
2026-05-08 12:30 49.57238 2.25180 16133 ft 318 kts 322°
2026-05-08 12:30 49.59037 2.23182 16825 ft 320 kts 322°
2026-05-08 12:31 49.60850 2.21168 17509 ft 323 kts 322°
2026-05-08 12:31 49.62091 2.19790 17975 ft 325 kts 322°
2026-05-08 12:31 49.64536 2.17070 18813 ft 329 kts 322°
2026-05-08 12:31 49.66404 2.14986 19395 ft 332 kts 322°
2026-05-08 12:32 49.67672 2.13567 19787 ft 334 kts 322°
2026-05-08 12:32 49.69561 2.11455 20368 ft 338 kts 322°
2026-05-08 12:32 49.71477 2.09312 20923 ft 341 kts 322°
2026-05-08 12:32 49.73401 2.07155 21482 ft 343 kts 322°
2026-05-08 12:33 49.75345 2.04971 22034 ft 347 kts 322°
2026-05-08 12:33 49.77303 2.02770 22591 ft 350 kts 322°
2026-05-08 12:33 49.79281 2.00548 23157 ft 353 kts 322°
2026-05-08 12:33 49.81283 1.98299 23566 ft 360 kts 322°
2026-05-08 12:34 49.83324 1.96006 23689 ft 374 kts 322°
2026-05-08 12:34 49.85468 1.93590 23815 ft 387 kts 322°
2026-05-08 12:34 49.87681 1.91093 23965 ft 399 kts 322°
2026-05-08 12:34 49.89952 1.88532 24056 ft 406 kts 322°
2026-05-08 12:35 49.92208 1.85908 24076 ft 405 kts 321°
2026-05-08 12:35 49.94429 1.83207 24079 ft 405 kts 320°
2026-05-08 12:35 49.96625 1.80467 24079 ft 405 kts 320°
2026-05-08 12:35 49.98811 1.77714 24076 ft 405 kts 320°
2026-05-08 12:36 50.00997 1.74963 24077 ft 405 kts 320°
2026-05-08 12:36 50.03189 1.72221 24080 ft 404 kts 320°
2026-05-08 12:36 50.05387 1.69489 24081 ft 405 kts 320°
2026-05-08 12:36 50.07587 1.66758 24044 ft 403 kts 320°
2026-05-08 12:37 50.09723 1.64002 23804 ft 394 kts 318°
2026-05-08 12:37 50.11783 1.61229 23569 ft 391 kts 317°
2026-05-08 12:37 50.13786 1.58461 23292 ft 389 kts 317°
2026-05-08 12:37 50.15802 1.55655 23012 ft 387 kts 317°
2026-05-08 12:38 50.17809 1.52881 22742 ft 385 kts 317°
2026-05-08 12:38 50.19820 1.50122 22465 ft 384 kts 317°
2026-05-08 12:38 50.21829 1.47378 22195 ft 382 kts 317°
2026-05-08 12:38 50.23827 1.44651 21933 ft 381 kts 317°
2026-05-08 12:39 50.25816 1.41930 21665 ft 379 kts 317°
2026-05-08 12:39 50.27792 1.39222 21405 ft 377 kts 317°
2026-05-08 12:39 50.29765 1.36519 21144 ft 376 kts 317°
2026-05-08 12:39 50.31725 1.33831 20887 ft 374 kts 317°
2026-05-08 12:40 50.33680 1.31153 20632 ft 373 kts 317°
2026-05-08 12:40 50.35627 1.28484 20373 ft 372 kts 317°
2026-05-08 12:40 50.37566 1.25821 20130 ft 370 kts 317°
2026-05-08 12:40 50.39498 1.23160 19882 ft 369 kts 317°
2026-05-08 12:41 50.41424 1.20506 19633 ft 368 kts 317°
2026-05-08 12:41 50.43342 1.17861 19391 ft 367 kts 317°
2026-05-08 12:41 50.45228 1.15260 19157 ft 365 kts 317°
2026-05-08 12:41 50.47131 1.12627 18915 ft 364 kts 317°
2026-05-08 12:42 50.49027 1.09994 18671 ft 363 kts 317°
2026-05-08 12:42 50.50919 1.07360 18427 ft 362 kts 317°
2026-05-08 12:42 50.52687 1.04563 18182 ft 360 kts 311°
2026-05-08 12:42 50.54393 1.01689 17909 ft 359 kts 312°
2026-05-08 12:43 50.56097 0.98824 17636 ft 358 kts 312°
2026-05-08 12:43 50.57793 0.95969 17372 ft 357 kts 311°
2026-05-08 12:43 50.59484 0.93117 17106 ft 356 kts 311°
2026-05-08 12:43 50.61167 0.90276 16845 ft 354 kts 311°
2026-05-08 12:44 50.62844 0.87438 16584 ft 353 kts 311°
2026-05-08 12:44 50.64511 0.84605 16328 ft 352 kts 311°
2026-05-08 12:44 50.66153 0.81816 16075 ft 351 kts 311°
2026-05-08 12:44 50.67803 0.78989 15823 ft 350 kts 310°
2026-05-08 12:45 50.69395 0.76066 15266 ft 353 kts 308°
2026-05-08 12:45 50.70950 0.73038 14592 ft 358 kts 307°
2026-05-08 12:45 50.72497 0.69939 13922 ft 362 kts 307°
2026-05-08 12:45 50.74052 0.66805 13402 ft 360 kts 307°
2026-05-08 12:46 50.75596 0.63712 12913 ft 356 kts 307°
2026-05-08 12:46 50.77128 0.60666 12415 ft 353 kts 307°
2026-05-08 12:46 50.78648 0.57660 12107 ft 344 kts 307°
2026-05-08 12:46 50.80117 0.54766 11975 ft 331 kts 307°
2026-05-08 12:47 50.81534 0.51975 11839 ft 319 kts 307°
2026-05-08 12:47 50.82884 0.49316 11568 ft 303 kts 307°
2026-05-08 12:47 50.84185 0.46741 10993 ft 297 kts 305°
2026-05-08 12:47 50.85209 0.43867 10206 ft 298 kts 292°
2026-05-08 12:48 50.86022 0.40938 9865 ft 285 kts 291°
2026-05-08 12:48 50.86813 0.38021 8755 ft 295 kts 291°
2026-05-08 12:48 50.87603 0.35099 8310 ft 284 kts 291°
2026-05-08 12:48 50.88363 0.32280 7900 ft 274 kts 291°
2026-05-08 12:49 50.89108 0.29531 7349 ft 270 kts 291°
2026-05-08 12:49 50.89843 0.26814 7106 ft 268 kts 291°
2026-05-08 12:49 50.90581 0.24086 7080 ft 271 kts 291°
2026-05-08 12:49 50.91325 0.21342 7083 ft 271 kts 291°
2026-05-08 12:50 50.92068 0.18601 7086 ft 271 kts 291°
2026-05-08 12:50 50.92815 0.15855 7086 ft 271 kts 291°
2026-05-08 12:50 50.93558 0.13110 7098 ft 271 kts 291°
2026-05-08 12:50 50.94304 0.10359 7095 ft 271 kts 291°
2026-05-08 12:51 50.95050 0.07614 7094 ft 272 kts 291°
2026-05-08 12:51 50.96548 0.02105 7094 ft 272 kts 291°
2026-05-08 12:51 50.97304 -0.00651 7090 ft 272 kts 291°
2026-05-08 12:52 50.98059 -0.03400 7070 ft 272 kts 291°
2026-05-08 12:52 50.99554 -0.08854 6319 ft 268 kts 291°
2026-05-08 12:52 51.00297 -0.11566 5896 ft 268 kts 291°
2026-05-08 12:53 51.01024 -0.14248 5471 ft 268 kts 291°
2026-05-08 12:53 51.01757 -0.16968 5086 ft 268 kts 291°
2026-05-08 12:53 51.02397 -0.19748 4685 ft 267 kts 283°
2026-05-08 12:53 51.02842 -0.22611 4227 ft 268 kts 281°
2026-05-08 12:54 51.03263 -0.25495 3767 ft 269 kts 281°
2026-05-08 12:54 51.03677 -0.28392 3362 ft 269 kts 281°
2026-05-08 12:54 51.04091 -0.31293 3034 ft 268 kts 281°
2026-05-08 12:54 51.04503 -0.34190 3010 ft 269 kts 281°
2026-05-08 12:55 51.04914 -0.37094 3008 ft 271 kts 281°
2026-05-08 12:55 51.05335 -0.40012 3013 ft 270 kts 281°
2026-05-08 12:55 51.05750 -0.42915 3015 ft 270 kts 281°
2026-05-08 12:55 51.06161 -0.45763 3002 ft 256 kts 281°
2026-05-08 12:56 51.06542 -0.48392 3012 ft 235 kts 280°
2026-05-08 12:56 51.07133 -0.50780 3010 ft 235 kts 307°
2026-05-08 12:56 51.08407 -0.52331 3013 ft 234 kts 344°
2026-05-08 12:56 51.09975 -0.52277 3016 ft 222 kts 27°
2026-05-08 12:57 51.11012 -0.50724 3004 ft 197 kts 73°
2026-05-08 12:57 51.11042 -0.48734 3034 ft 173 kts 108°
2026-05-08 12:57 51.10882 -0.46854 3020 ft 174 kts 82°
2026-05-08 12:57 51.11235 -0.45062 3007 ft 165 kts 81°
2026-05-08 12:58 51.11460 -0.43283 2982 ft 163 kts 82°
2026-05-08 12:58 51.11689 -0.41535 2847 ft 161 kts 82°
2026-05-08 12:58 51.11926 -0.39809 2645 ft 159 kts 82°
2026-05-08 12:58 51.12164 -0.38088 2445 ft 161 kts 81°
2026-05-08 12:59 51.12398 -0.36417 2242 ft 149 kts 81°
2026-05-08 12:59 51.12614 -0.34867 2028 ft 143 kts 80°
2026-05-08 12:59 51.12828 -0.33338 1829 ft 139 kts 81°
2026-05-08 12:59 51.13036 -0.31840 1646 ft 138 kts 82°
2026-05-08 13:00 51.13244 -0.30352 1470 ft 137 kts 82°
2026-05-08 13:00 51.13448 -0.28880 1278 ft 137 kts 82°
2026-05-08 13:00 51.13651 -0.27423 1095 ft 133 kts 82°
2026-05-08 13:00 51.13856 -0.25962 908 ft 135 kts 81°
2026-05-08 13:01 51.14057 -0.24515 753 ft 133 kts 81°
2026-05-08 13:01 51.14258 -0.23059 567 ft 134 kts 80°
2026-05-08 13:01 51.14459 -0.21607 358 ft 136 kts 79°
2026-05-08 13:01 51.14659 -0.20153 211 ft 129 kts 80°
2026-05-08 13:02 51.14812 -0.18988 205 ft 82 kts 78°
2026-05-08 13:02 51.14904 -0.18364 209 ft 33 kts 77°
2026-05-08 13:02 51.14938 -0.18120 205 ft 20 kts 77°
2026-05-08 13:02 51.14977 -0.17967 210 ft 9 kts 62°
2026-05-08 13:03 51.15002 -0.17900 207 ft 6 kts 56°
2026-05-08 13:03 51.15019 -0.17862 212 ft 2 kts 54°
2026-05-08 13:03 51.15028 -0.17842 211 ft 2 kts 53°
2026-05-08 13:03 51.15037 -0.17824 209 ft 0 kts 52°
2026-05-08 13:04 51.15039 -0.17820 209 ft 1 kts 52°
2026-05-08 13:04 51.15045 -0.17808 212 ft 5 kts 52°
2026-05-08 13:04 51.15078 -0.17754 209 ft 7 kts 28°
2026-05-08 13:04 51.15118 -0.17751 205 ft 5 kts 354°
2026-05-08 13:05 51.15160 -0.17762 205 ft 8 kts 351°
2026-05-08 13:05 51.15217 -0.17773 216 ft 8 kts 355°
2026-05-08 13:05 51.15256 -0.17725 211 ft 7 kts 63°
2026-05-08 13:05 51.15273 -0.17618 204 ft 12 kts 78°
2026-05-08 13:06 51.15292 -0.17475 208 ft 14 kts 81°
2026-05-08 13:06 51.15342 -0.17365 206 ft 14 kts
2026-05-08 13:06 51.15430 -0.17394 206 ft 12 kts 347°
2026-05-08 13:06 51.15507 -0.17420 204 ft 11 kts 348°
2026-05-08 13:07 51.15576 -0.17444 206 ft 10 kts 347°
2026-05-08 13:07 51.15625 -0.17462 208 ft 1 kts 347°
2026-05-08 13:07 51.15630 -0.17464 207 ft 2 kts 347°
2026-05-08 13:07 51.15652 -0.17471 212 ft 0 kts 348°
2026-05-08 13:08 51.15665 -0.17476 213 ft 7 kts 348°
2026-05-08 13:08 51.15711 -0.17491 204 ft 6 kts 348°
2026-05-08 13:08 51.15748 -0.17487 204 ft 5 kts 30°
2026-05-08 13:09 51.15772 -0.17409 206 ft 10 kts 77°
2026-05-08 13:09 51.15787 -0.17299 205 ft 11 kts 77°
2026-05-08 13:09 51.15804 -0.17174 207 ft 12 kts 78°
2026-05-08 13:09 51.15842 -0.17073 208 ft 11 kts 23°
2026-05-08 13:10 51.15904 -0.17058 207 ft 8 kts 355°
2026-05-08 13:10 51.15949 -0.17097 211 ft 7 kts 319°
2026-05-08 13:10 51.15975 -0.17142 214 ft 1 kts 315°
2026-05-08 13:10 51.15977 -0.17145 215 ft 0 kts 315°